Location: Dana
(41.8364°N, 106.7042°W)
Time: 12:09:01
(UTC+00:00)

Tiros 1 despin weight - Pass Details

Date: 17 May 2026
Orbit: 554 x 591 km, 48.2° (Epoch: 10 June)

Event Time Altitude Azimuth Distance (km) Brightness Sun altitude
Rises 15:25:32 0° 295° (WNW) 2,741 ? 39.1°
Reaches altitude 10° 15:27:52 10° 302° (WNW) 1,841 ? 39.5°
Maximum altitude 15:31:54 45° 16° (NNE) 762 ? 40.3°
Drops below altitude 10° 15:35:55 10° 90° (E) 1,830 ? 41.0°
Sets 15:38:14 0° 97° (E) 2,723 ? 41.4°
